TimeAST,TemperatureF,Dew PointF,Humidity,Sea Level PressureIn,VisibilityMPH,Wind Direction,Wind SpeedMPH,Gust SpeedMPH,PrecipitationIn,Events,Conditions,WindDirDegrees,DateUTC
12:00 AM,82.4,77.0,84,29.86,-9999.0,East,6.9,-,N/A,,Unknown,80,2012-11-22 04:00:00
2:00 AM,82.4,77.0,84,29.83,-9999.0,East,5.8,-,N/A,,Unknown,80,2012-11-22 06:00:00
3:00 AM,82.4,77.0,84,29.80,-9999.0,East,6.9,-,N/A,,Unknown,80,2012-11-22 07:00:00
4:00 AM,82.4,77.0,84,29.80,-9999.0,East,5.8,-,N/A,,Unknown,80,2012-11-22 08:00:00
6:00 AM,82.4,77.0,84,29.83,-9999.0,East,8.1,-,N/A,,Unknown,90,2012-11-22 10:00:00
8:00 AM,85,77,72,29.86,25,East,12.7,,,,Partly Cloudy,100,2012-11-22 12:00:00
8:00 AM,86.0,77.0,74,29.89,6.2,East,12.7,-,N/A,,Partly Cloudy,100,2012-11-22 12:00:00
9:00 AM,86.0,77.0,74,29.89,6.2,East,13.8,-,N/A,,Scattered Clouds,100,2012-11-22 13:00:00
10:00 AM,87.8,78.8,75,29.89,-9999.0,North,-9999.0,-,N/A,,Unknown,0,2012-11-22 14:00:00
11:00 AM,89.6,77.0,66,29.89,6.2,ESE,15.0,-,N/A,,Scattered Clouds,120,2012-11-22 15:00:00
12:00 PM,89.6,77.0,66,29.86,-9999.0,North,-9999.0,-,N/A,,Unknown,0,2012-11-22 16:00:00
1:00 PM,89.6,77.0,66,29.86,6.2,ESE,15.0,-,N/A,,Scattered Clouds,110,2012-11-22 17:00:00
2:00 PM,89.6,77.0,66,29.83,6.2,ESE,15.0,-,N/A,,Mostly Cloudy,110,2012-11-22 18:00:00
3:00 PM,89.6,77.0,66,29.83,6.2,ESE,12.7,-,N/A,,Scattered Clouds,120,2012-11-22 19:00:00
4:00 PM,87.8,77.0,70,29.83,6.2,ESE,12.7,-,N/A,,Scattered Clouds,110,2012-11-22 20:00:00
5:00 PM,86,76,65,29.83,25,East,13.8,,,,Scattered Clouds,90,2012-11-22 21:00:00
5:00 PM,86.0,75.2,70,29.80,6.2,East,13.8,-,N/A,,Partly Cloudy,90,2012-11-22 21:00:00
6:00 PM,84.2,77.0,79,29.83,6.2,ENE,10.4,-,N/A,,Partly Cloudy,70,2012-11-22 22:00:00
7:00 PM,84.2,77.0,79,29.83,6.2,East,10.4,-,N/A,,Partly Cloudy,80,2012-11-22 23:00:00
8:00 PM,83,77,79,29.86,25,East,11.5,,,,Scattered Clouds,80,2012-11-23 00:00:00
8:00 PM,84.2,77.0,79,29.83,6.2,ENE,10.4,-,N/A,,Partly Cloudy,70,2012-11-23 00:00:00
9:00 PM,-9999,-9999,N/A,-9999,-9999.0,North,-9999.0,-,N/A,,Unknown,0,2012-11-23 01:00:00
10:00 PM,82.4,77.0,84,29.89,-9999.0,East,6.9,-,N/A,,Unknown,80,2012-11-23 02:00:00
11:00 PM,82,77,81,,,East,6.9,,,,Clear,80,2012-11-23 03:00:00
11:00 PM,82.4,77.0,84,29.89,-9999.0,North,-9999.0,-,N/A,,Unknown,0,2012-11-23 03:00:00